Weather History for KCXY - October, 2011

Change the Weather History Date:

Saturday, October 1, 2011

  Actual Average Record
Temperature  
Mean Temperature 52 °F -  
Max Temperature 55 °F 67 °F 90 °F (1927)
Min Temperature 46 °F 48 °F 35 °F (1947)
Degree Days  
Heating Degree Days 14    
Growing Degree Days 2 (Base 50)    
Moisture  
Dew Point 46 °F    
Average Humidity 77    
Maximum Humidity 86    
Minimum Humidity 71    
Precipitation  
Precipitation 0.15 in - - ()
Sea Level Pressure  
Sea Level Pressure 29.76 in    
Wind  
Wind Speed 9 mph (WNW)    
Max Wind Speed 13 mph    
Max Gust Speed 20 mph    
Visibility 10 miles    
Events Rain    
Averages and records for this station are not official NWS values.
T = Trace of Precipitation, MM = Missing Value Source: NWS Daily Summary

Daily Weather History Graph

Daily Weather History Graph

Search for Another Location

Airport or City:

Trip Planner

Search our weather history database for the weather conditions in past years. The results will help you decide how hot, cold, wet, or windy it might be!

Date:

Astronomy

Oct. 01, 2011 Rise Set
Actual Time 7:03 AM EDT 6:50 PM EDT
Civil Twilight 6:36 AM EDT 7:17 PM EDT
Nautical Twilight 6:04 AM EDT 7:48 PM EDT
Astronomical Twilight 5:33 AM EDT 8:20 PM EDT
Moon 12:07 PM EDT (10/1) 9:44 PM EDT (10/1)
Length of Visible Light 12h 40m
Length of Day
11h 46m
Waxing Crescent, 24% of the Moon is Illuminated
Oct 1
Waxing Crescent
Oct 3
First Quarter
Oct 11
Full
Oct 19
Last Quarter
Oct 26
New

Hourly Weather History & Observations

Time (EDT) Temp. Dew Point Humidity Pressure Visibility Wind Dir Wind Speed Gust Speed Precip Events Conditions
12:56 AM 55.9 °F 48.9 °F 77% 29.70 in 10.0 mi West 5.8 mph - N/A   Partly Cloudy
1:56 AM 55.9 °F 48.9 °F 77% 29.70 in 10.0 mi WNW 6.9 mph - N/A   Partly Cloudy
2:29 AM 55.4 °F 46.4 °F 72% 29.70 in 10.0 mi NW 9.2 mph - N/A   Mostly Cloudy
2:38 AM 55.4 °F 46.4 °F 72% 29.71 in 10.0 mi WNW 12.7 mph - N/A   Mostly Cloudy
2:56 AM 55.9 °F 46.9 °F 72% 29.71 in 10.0 mi West 12.7 mph - N/A   Overcast
3:56 AM 54.0 °F 45.0 °F 72% 29.70 in 10.0 mi West 9.2 mph - N/A   Overcast
4:18 AM 53.6 °F 44.6 °F 72% 29.71 in 10.0 mi West 8.1 mph - N/A   Overcast
4:35 AM 53.6 °F 44.6 °F 72% 29.70 in 10.0 mi WNW 11.5 mph - N/A   Overcast
4:56 AM 54.0 °F 45.0 °F 72% 29.72 in 10.0 mi WNW 11.5 mph - N/A   Overcast
5:56 AM 53.1 °F 44.1 °F 71% 29.72 in 10.0 mi West 9.2 mph - N/A   Overcast
6:56 AM 53.1 °F 44.1 °F 71% 29.74 in 10.0 mi WNW 10.4 mph - N/A   Overcast
7:56 AM 53.1 °F 44.1 °F 71% 29.75 in 10.0 mi West 10.4 mph - N/A   Overcast
8:24 AM 53.6 °F 44.6 °F 72% 29.75 in 10.0 mi WNW 12.7 mph - N/A   Overcast
9:56 AM 52.0 °F 45.0 °F 77% 29.78 in 10.0 mi West 11.5 mph - N/A   Overcast
10:56 AM 51.1 °F 46.9 °F 86% 29.79 in 5.0 mi West 9.2 mph - 0.00 in Rain Light Rain
11:56 AM 53.1 °F 46.9 °F 80% 29.79 in 10.0 mi West 10.4 mph - 0.01 in Rain Light Rain
1:56 PM 54.0 °F 48.0 °F 80% 29.78 in 10.0 mi West 9.2 mph - N/A   Overcast
2:56 PM 52.0 °F 48.0 °F 86% 29.77 in 10.0 mi West 9.2 mph - 0.00 in Rain Light Rain
3:56 PM 52.0 °F 48.0 °F 86% 29.77 in 10.0 mi West 9.2 mph - 0.00 in   Overcast
5:56 PM 54.0 °F 46.9 °F 77% 29.79 in 10.0 mi NNW 11.5 mph 17.3 mph 0.01 in   Overcast
7:56 PM 50.0 °F 45.0 °F 83% 29.81 in 10.0 mi NNW 10.4 mph 18.4 mph 0.00 in Rain Light Rain
8:56 PM 50.0 °F 44.1 °F 80% 29.82 in 10.0 mi North 5.8 mph - 0.02 in Rain Light Rain
9:56 PM 48.0 °F 44.1 °F 86% 29.82 in 10.0 mi NNW 6.9 mph 16.1 mph 0.07 in Rain Light Rain
10:56 PM 48.9 °F 43.0 °F 80% 29.81 in 10.0 mi North 5.8 mph - 0.00 in Rain Light Rain
11:45 PM 48.2 °F 42.8 °F 82% 29.80 in 6.0 mi North 11.5 mph 19.6 mph 0.03 in Rain Rain
11:56 PM 46.9 °F 42.1 °F 83% 29.80 in 8.0 mi NNW 9.2 mph 19.6 mph 0.04 in Rain Light Rain